[[{"header":{"parameterUnit":"m.s-1","parameterCategory":1,"la1":30.2991,"la2":30.254,"lo1":-89.0895,"lo2":-89.0444,"dy":0.0017,"dx":0.0017,"nx":28,"ny":28,"refTime":"2024-05-16T09:00:00:Z","depth":0,"parameterNumber":2,"parameterNumberName":"U-component_of_WINDS"},"data":[0,0,0,0,0,0,0,0,0,0,0,0,0,0,0,0,0,0,0,0,0,0,0,0,0,0,0,0,0,0,0,0,0,0,0,0,0,0,0,0,0,0,0,0,0,0,0,0,0,0,0,0,0,0,0,0,0,0,-2.9906,-2.9905,0,-2.9857,-2.9856,-2.9856,-2.9745,-2.9742,-2.974,-2.9738,-2.9689,-2.969,-2.9691,0,0,0,0,0,0,0,0,0,0,0,0,0,-2.9908,-2.9909,-2.9906,-2.9905,-2.9905,-2.9857,-2.9856,-2.9855,-2.9745,-2.9742,-2.974,-2.9737,-2.9689,-2.969,-2.9691,0,0,0,0,0,0,0,0,0,0,0,0,0,-2.9888,-2.9909,-2.9906,-2.9844,-2.9838,-2.9857,-2.9856,-2.9855,-2.9746,-2.9742,-2.9739,-2.9736,-2.9689,-2.969,-2.9691,-2.9767,0,0,-2.9695,-2.9695,0,0,0,0,0,0,0,0,-2.9889,-2.9888,-2.9854,-2.9848,-2.9841,-2.9803,-2.9839,-2.9826,-2.9747,-2.9781,-2.9738,-2.9734,-2.973,-2.9728,-2.9726,-2.9765,-2.9763,-2.9695,-2.9696,-2.9696,-2.9697,0,0,0,0,0,0,0,-2.9891,-2.9889,-2.9886,-2.9853,-2.9846,-2.982,-2.9813,-2.9836,-2.9775,-2.9778,-2.9769,-2.9765,-2.9726,-2.9725,-2.9724,-2.9762,-2.9695,-2.9696,-2.9697,-2.9697,-2.9862,-2.9866,0,0,0,0,0,0,-2.9901,-2.9891,-2.9888,-2.9885,-2.9857,-2.9822,-2.9815,-2.9819,-2.9775,-2.9765,-2.9768,-2.976,-2.9725,-2.9723,-2.9722,-2.9808,-2.9696,-2.9698,-2.9698,-2.9859,-2.9863,-2.9867,0,0,0,0,0,0,-2.9901,-2.9901,-2.989,-2.9886,-2.9882,-2.9826,-2.9832,-2.982,-2.9819,-2.9767,-2.9756,-2.9778,-2.9722,-2.972,-2.9757,-2.9805,-2.9698,-2.9699,-2.9854,-2.986,-2.9865,-2.9981,0,0,0,0,0,0,-2.9902,-2.9902,-2.993,-2.9887,-2.9883,-2.9925,-2.9834,-2.9821,-2.9821,-2.981,-2.9774,-2.9764,-2.9719,-2.9756,-2.9758,-2.9804,-2.97,-2.985,-2.9857,-2.9863,-2.9972,-2.9989,-3.0004,0,0,0,0,0,-2.9902,-2.9964,-2.9932,-2.9932,-2.9916,-2.9928,-2.9926,-2.9872,-2.9825,-2.9853,-2.982,-2.9766,-2.98,-2.976,-2.9762,-2.981,-2.9846,-2.9855,-2.9863,-2.9965,-2.9986,-3.0004,0,0,0,0,0,0,-3.0013,-2.9957,-2.992,-2.9971,-2.9955,-2.9909,-2.9942,-2.9895,-2.9893,-2.9883,-2.9817,-2.981,-2.9856,-2.9836,-2.9794,-2.9882,-2.9814,-2.9823,-2.9892,-2.9911,-2.9927,-2.9929,-2.9701,0,0,0,0,0,-3.0044,-3.0058,-3.0008,-3.0057,-3.0052,-2.9999,-3.0002,-2.9962,-2.9943,-2.9936,-2.9906,-2.9891,-2.9898,-2.9904,-2.9908,-2.997,-2.9961,-3.0004,-3.002,-3.0033,-3.0041,-3.0073,-3.0092,-2.9894,-2.9894,-2.9894,0,0,-3.0107,-3.0078,-3.009,-3.0079,-3.0062,-3.0079,-2.9994,-3.0014,-3.0026,-2.9939,-2.9971,-2.995,-2.9928,-2.9979,-2.9999,-2.9964,-3.0094,-3.0044,-3.0055,-3.0055,-3.0083,-3.0102,-3.0119,-2.9899,-2.9898,-2.9898,0,0,-3.0229,-3.0209,-3.0247,-3.0233,-3.0208,-3.0173,-3.0183,-3.0145,-3.0127,-3.0158,-3.0094,-3.0108,-3.0122,-3.0109,-3.0105,-3.0226,-3.0176,-3.023,-3.0311,-3.0344,-3.0359,-3.0373,-3.0415,-3.0431,-3.0238,-3.0239,-3.0239,0,-3.031,-3.033,-3.0273,-3.0298,-3.0295,-3.0219,-3.0258,-3.0247,-3.0226,-3.0226,-3.0188,-3.0204,-3.0184,-3.023,-3.026,-3.026,-3.0269,-3.0232,-3.0362,-3.0374,-3.0386,-3.0426,-3.0442,-3.0245,-3.0244,-3.0244,-3.0243,0,-3.0431,-3.0447,-3.0482,-3.0463,-3.0464,-3.0497,-3.0445,-3.0454,-3.0416,-3.0385,-3.0419,-3.0394,-3.0391,-3.04,-3.0362,-3.0442,-3.042,-3.0373,-3.0304,-3.0412,-3.0449,-3.0464,-3.0254,-3.0252,-3.025,-3.0248,0,0,-3.0618,-3.0569,-3.0582,-3.0573,-3.0543,-3.0554,-3.0585,-3.0582,-3.0591,-3.058,-3.0603,-3.0618,-3.0575,-3.057,-3.0531,-3.056,-3.0657,-3.0508,-3.0507,-3.0536,-3.0742,-3.0777,-3.0795,-3.0625,-3.0627,-3.063,-3.0744,0,-3.0731,-3.0778,-3.0728,-3.0785,-3.08,-3.0729,-3.0755,-3.074,-3.0714,-3.0723,-3.0694,-3.0705,-3.0648,-3.0644,-3.067,-3.064,-3.0697,-3.0631,-3.0646,-3.0647,-3.065,-3.0814,-3.085,-3.0958,-3.0758,-3.076,-3.0762,0,-3.0868,-3.0864,-3.0922,-3.0889,-3.0893,-3.0918,-3.0912,-3.0922,-3.0904,-3.0883,-3.088,-3.0833,-3.0861,-3.0796,-3.0835,-3.0791,-3.0795,-3.0781,-3.0784,-3.0781,-3.0709,-3.0814,-3.0992,-3.1008,-3.0784,-3.0782,-3.078,0,-3.0997,-3.1006,-3.1042,-3.1037,-3.1,-3.1018,-3.1004,-3.0983,-3.0985,-3.0981,-3.0982,-3.0982,-3.0982,-3.0984,-3.0939,-3.0896,-3.0983,-3.0914,-3.0966,-3.0967,-3.0985,-3.0984,-3.1164,-3.0992,-3.0992,-3.0991,-3.0991,0,-3.1127,-3.1165,-3.11,-3.1122,-3.1163,-3.1108,-3.1151,-3.1129,-3.1112,-3.1129,-3.107,-3.1088,-3.1028,-3.1041,-3.1006,-3.1043,-3.1044,-3.1028,-3.1018,-3.1032,-3.1033,-3.1031,-3.1021,-3.0995,-3.0995,-3.0994,-3.0993,0,-3.1276,-3.1234,-3.1269,-3.1231,-3.1223,-3.1255,-3.1223,-3.1243,-3.1214,-3.1237,-3.1239,-3.1194,-3.1206,-3.1162,-3.1166,-3.1143,-3.1198,-3.1176,-3.1203,-3.1196,-3.1249,-3.1244,-3.1432,-3.1454,-3.127,-3.1272,-3.1274,0,-3.136,-3.1388,-3.1354,-3.1362,-3.135,-3.1363,-3.1365,-3.1313,-3.1318,-3.1302,-3.1323,-3.133,-3.1332,-3.1354,-3.1322,-3.1326,-3.1303,-3.1369,-3.1302,-3.1316,-3.1302,-3.1299,-3.1302,-3.1381,-3.1383,-3.1385,-3.1387,0,-3.1514,-3.1493,-3.1497,-3.1496,-3.1501,-3.1497,-3.149,-3.1499,-3.1444,-3.1453,-3.1464,-3.1466,-3.1471,-3.1478,-3.1475,-3.1461,-3.1415,-3.1409,-3.142,-3.1433,-3.1447,-3.1439,-3.1238,-3.1403,-3.1402,-3.1401,-3.14,-3.1399,-3.1632,-3.1654,-3.1633,-3.1641,-3.1631,-3.1626,-3.1642,-3.1616,-3.1624,-3.1623,-3.1594,-3.1611,-3.1595,-3.1586,-3.1577,-3.1591,-3.156,-3.1577,-3.1581,-3.1586,-3.1594,-3.1448,-3.159,-3.159,-3.1589,-3.1589,-3.1588,0,-3.1781,-3.1765,-3.1774,-3.1765,-3.1772,-3.1729,-3.172,-3.1728,-3.1744,-3.1733,-3.1737,-3.175,-3.1758,-3.1728,-3.1732,-3.1748,-3.1727,-3.1751,-3.1748,-3.1745,-3.1622,-3.1611,-3.1768,-3.1768,-3.1768,-3.1768,-3.1768,-3.1768,-3.1859,-3.1893,-3.187,-3.1899,-3.1883,-3.1899,-3.1897,-3.1893,-3.1884,-3.1901,-3.1907,-3.1888,-3.1869,-3.1872,-3.1878,-3.1869,-3.1872,-3.1903,-3.1887,-3.1772,-3.1754,-3.1737,-3.1726,-3.1904,-3.1905,-3.2008,-3.2009,-3.2009]},{"header":{"parameterUnit":"m.s-1","parameterCategory":1,"la1":30.2991,"la2":30.254,"lo1":-89.0895,"lo2":-89.0444,"dy":0.0017,"dx":0.0017,"nx":28,"ny":28,"refTime":"2024-05-16T09:00:00:Z","depth":0,"parameterNumber":3,"parameterNumberName":"V-component_of_WINDS"},"data":[0,0,0,0,0,0,0,0,0,0,0,0,0,0,0,0,0,0,0,0,0,0,0,0,0,0,0,0,0,0,0,0,0,0,0,0,0,0,0,0,0,0,0,0,0,0,0,0,0,0,0,0,0,0,0,0,0,0,2.4663,2.4663,0,2.4669,2.4669,2.4669,2.4729,2.4731,2.4732,2.4734,2.4735,2.4733,2.4732,0,0,0,0,0,0,0,0,0,0,0,0,0,2.47,2.4699,2.4663,2.4663,2.4663,2.4669,2.4669,2.4669,2.4729,2.4731,2.4733,2.4734,2.4735,2.4734,2.4732,0,0,0,0,0,0,0,0,0,0,0,0,0,2.4693,2.4699,2.4663,2.4694,2.4697,2.4669,2.4669,2.4669,2.4728,2.4731,2.4733,2.4735,2.4736,2.4734,2.4732,2.4673,0,0,2.4725,2.4724,0,0,0,0,0,0,0,0,2.4693,2.4691,2.4689,2.4691,2.4695,2.4701,2.4683,2.467,2.4728,2.4716,2.4734,2.4736,2.4721,2.4721,2.4716,2.4673,2.4673,2.4725,2.4724,2.4723,2.4722,0,0,0,0,0,0,0,2.4693,2.4691,2.4665,2.4689,2.4692,2.4706,2.4708,2.468,2.4706,2.4717,2.4722,2.4722,2.4723,2.4718,2.4717,2.4673,2.4725,2.4723,2.4722,2.4721,2.4584,2.4581,0,0,0,0,0,0,2.469,2.4691,2.4665,2.4665,2.47,2.4704,2.4705,2.4696,2.4706,2.471,2.472,2.4725,2.4721,2.4719,2.4717,2.465,2.4723,2.4721,2.472,2.4586,2.4583,2.458,0,0,0,0,0,0,2.4691,2.4687,2.4665,2.4679,2.4678,2.4701,2.469,2.4695,2.469,2.4708,2.4713,2.4711,2.4723,2.472,2.4684,2.4651,2.472,2.4718,2.4589,2.4585,2.4582,2.4514,0,0,0,0,0,0,2.4692,2.4687,2.4666,2.4679,2.4677,2.4632,2.4688,2.4694,2.4687,2.4694,2.4701,2.4704,2.4724,2.4687,2.4682,2.4649,2.4717,2.4592,2.4587,2.4583,2.4519,2.4508,2.4499,0,0,0,0,0,2.4693,2.4645,2.4664,2.4661,2.4651,2.463,2.4629,2.4655,2.4684,2.4663,2.4674,2.4704,2.4656,2.4683,2.4678,2.4643,2.4594,2.4589,2.4583,2.4524,2.451,2.4499,0,0,0,0,0,0,2.4625,2.4647,2.4669,2.4624,2.4625,2.464,2.4613,2.464,2.4631,2.4637,2.4668,2.4669,2.4628,2.4633,2.4663,2.4588,2.463,2.4623,2.4586,2.4574,2.4564,2.4563,2.4715,0,0,0,0,0,2.4605,2.4588,2.4608,2.4567,2.4566,2.459,2.4582,2.4602,2.4603,2.4604,2.4613,2.4612,2.4597,2.4586,2.4573,2.4521,2.4523,2.4495,2.4485,2.4477,2.447,2.4443,2.4431,2.4563,2.4563,2.4563,0,0,2.4563,2.4574,2.456,2.4553,2.4557,2.4537,2.459,2.4566,2.4552,2.46,2.4567,2.4574,2.4575,2.4531,2.4512,2.4533,2.4434,2.447,2.4463,2.4461,2.4436,2.4424,2.4412,2.4559,2.456,2.456,0,0,2.4477,2.4484,2.445,2.4453,2.4458,2.4475,2.4467,2.4479,2.4485,2.4454,2.4489,2.4472,2.4445,2.4445,2.4441,2.4358,2.4384,2.4353,2.4299,2.4273,2.4263,2.4253,2.4223,2.4212,2.4346,2.4346,2.4346,0,2.4424,2.4398,2.4429,2.4405,2.44,2.4445,2.4411,2.4412,2.4411,2.4407,2.4432,2.44,2.4404,2.4361,2.4341,2.4336,2.4328,2.4351,2.4262,2.4253,2.4245,2.4216,2.4205,2.4342,2.4343,2.4343,2.4343,0,2.4332,2.4313,2.4286,2.4287,2.4279,2.425,2.4276,2.4265,2.4286,2.43,2.4267,2.4274,2.4264,2.4255,2.4275,2.4215,2.4228,2.4257,2.4299,2.4228,2.4202,2.4191,2.4337,2.4338,2.4339,2.434,0,0,2.4201,2.4222,2.4211,2.4213,2.4223,2.4208,2.4181,2.4173,2.4162,2.4161,2.4139,2.4116,2.4144,2.4139,2.416,2.4137,2.407,2.4169,2.4169,2.4149,2.4004,2.3982,2.3968,2.4089,2.4087,2.4085,2.4004,0,2.4118,2.4074,2.4103,2.4053,2.4036,2.408,2.4056,2.4059,2.4072,2.4058,2.4072,2.4055,2.4093,2.4091,2.407,2.4082,2.4041,2.4089,2.4067,2.4065,2.4064,2.3955,2.3931,2.3853,2.3994,2.3992,2.3991,0,2.4014,2.4011,2.3961,2.3976,2.397,2.3948,2.3943,2.3931,2.3935,2.3946,2.3942,2.3969,2.3943,2.3986,2.395,2.3982,2.3975,2.398,2.3978,2.3975,2.4023,2.3948,2.3829,2.3817,2.3975,2.3976,2.3977,0,2.3923,2.3906,2.3874,2.3874,2.3891,2.3875,2.388,2.3888,2.3881,2.3877,2.3873,2.3865,2.386,2.3854,2.3877,2.3907,2.3838,2.3883,2.3845,2.3844,2.3827,2.3827,2.3704,2.3824,2.3824,2.3824,2.3825,0,2.3827,2.3794,2.3834,2.3814,2.3779,2.3812,2.3776,2.3786,2.3793,2.3775,2.3812,2.3794,2.3827,2.3813,2.3831,2.3798,2.3796,2.3803,2.3808,2.3799,2.3798,2.3794,2.3799,2.3821,2.3822,2.3823,2.3823,0,2.3718,2.3743,2.3712,2.3731,2.3735,2.3708,2.3724,2.3706,2.3723,2.37,2.3696,2.3721,2.3706,2.3729,2.3716,2.3729,2.3683,2.3697,2.3682,2.3686,2.3646,2.3649,2.3514,2.3498,2.3629,2.3628,2.3627,0,2.3654,2.363,2.3648,2.364,2.3644,2.363,2.3625,2.3657,2.3649,2.3654,2.3635,2.3624,2.3616,2.359,2.3606,2.3597,2.361,2.3564,2.3608,2.3601,2.3608,2.3609,2.3607,2.3553,2.3552,2.3551,2.355,0,2.3537,2.3552,2.3544,2.354,2.3533,2.3531,2.3531,2.3522,2.3556,2.3546,2.3533,2.3527,2.3515,2.3503,2.3498,2.3503,2.3531,2.3536,2.3526,2.3516,2.3508,2.3511,2.3656,2.3538,2.3539,2.354,2.3541,2.3541,2.3449,2.343,2.344,2.343,2.3434,2.3435,2.3419,2.3434,2.3424,2.3418,2.3438,2.3419,2.3426,2.3422,2.3424,2.341,2.343,2.3416,2.3413,2.3409,2.3402,2.3512,2.3409,2.341,2.341,2.341,2.341,0,2.3334,2.3343,2.3333,2.3334,2.3326,2.3357,2.3359,2.335,2.3334,2.3338,2.3331,2.3315,2.3304,2.3321,2.3312,2.3297,2.331,2.3294,2.3295,2.3295,2.3385,2.3394,2.3284,2.3284,2.3284,2.3284,2.3284,2.3284,2.3273,2.3243,2.3259,2.3232,2.3241,2.3225,2.3224,2.3224,2.3228,2.321,2.3202,2.3213,2.3222,2.3215,2.3206,2.3211,2.3206,2.3185,2.3194,2.3277,2.3289,2.3301,2.3309,2.3184,2.3183,2.3106,2.3105,2.3104]}]]